User: anonymous   Login
Location: Atlantic Beach
(40.5890°N, 73.7290°W)
Time: 17:12:44
(UTC+00:00)
Language:

Hubble Space Telescope - Orbit

View from above orbital plane
View from above orbital plane
View from above satellite
View from above satellite

Ground track
Ground track

The orbit data is extracted from the following two-line orbital elements,

1 20580U 90037B   21170.38053661  .00000540  00000-0  21722-4 0  9994
2 20580  28.4709  52.3274 0002841  84.9244  78.1602 15.09662431511330
Epoch (UTC): 19 June 2021 09:07:58
Eccentricity: 0.0002841
inclination: 28.4709°
perigee height: 535 km
apogee height: 539 km
right ascension of ascending node: 52.3274°
argument of perigee: 84.9244°
revolutions per day: 15.09662431
mean anomaly at epoch: 78.1602°
orbit number at epoch: 51133

The dashed part of the orbit path shows where the satellite is in the earth's shadow,  

DLR